• In Romania
  • List of Countries
  • For 7 days
  • Water Temperature
  • Satellite Maps
  • Weather Map
  • Weather Widgets
  • user-avatar
    Login

    Hourly Weather Canberra

    Today, 17 October, Wednesday

    Time Temperature Precipitation Wind Pressure Humidity
    00:00 +14°C° 0 mm 1 mps 710 mmHg 97%
    01:00 +14°C° 0 mm 1 mps 710 mmHg 97%
    02:00 +14°C° 0 mm 1 mps 710 mmHg 98%
    03:00 +13°C° 0 mm 1 mps 709 mmHg 98%
    04:00 +13°C° 0 mm 1 mps 709 mmHg 98%
    05:00 +14°C° 0.1 mm 1 mps 709 mmHg 97%
    06:00 +14°C° 0.1 mm 1 mps 709 mmHg 96%
    07:00 +15°C° 0.1 mm 1 mps 709 mmHg 94%
    08:00 +16°C° 0.1 mm 2 mps 709 mmHg 90%
    09:00 +17°C° 0.1 mm 2 mps 709 mmHg 85%
    10:00 +19°C° 0 mm 2 mps 709 mmHg 76%
    11:00 +19°C° 0.4 mm 2 mps 709 mmHg 78%
    12:00 +19°C° 0.4 mm 3 mps 709 mmHg 80%
    13:00 +19°C° 0.4 mm 3 mps 708 mmHg 82%
    14:00 +19°C° 0.5 mm 3 mps 708 mmHg 83%
    15:00 +19°C° 0.5 mm 2 mps 708 mmHg 83%
    16:00 +19°C° 0 mm 2 mps 708 mmHg 82%
    17:00 +18°C° 0.9 mm 2 mps 708 mmHg 86%
    18:00 +16°C° 0.9 mm 1 mps 708 mmHg 91%
    19:00 +15°C° 0.9 mm 1 mps 708 mmHg 95%
    20:00 +14°C° 0.1 mm 1 mps 708 mmHg 95%
    21:00 +14°C° 0.1 mm 1 mps 708 mmHg 96%
    22:00 +12°C° 0.1 mm 0 mps 708 mmHg 96%
    23:00 +12°C° 0 mm 0 mps 708 mmHg 96%

    Tomorrow, 18 October, Thursday

    Time Temperature Precipitation Wind Pressure Humidity
    00:00 +12°C° 0 mm 1 mps 708 mmHg 96%
    01:00 +12°C° 0 mm 1 mps 708 mmHg 97%
    02:00 +12°C° 0 mm 1 mps 708 mmHg 97%
    03:00 +12°C° 0 mm 1 mps 708 mmHg 97%
    04:00 +11°C° 0 mm 1 mps 708 mmHg 97%
    05:00 +12°C° 0 mm 1 mps 708 mmHg 96%
    06:00 +13°C° 0 mm 1 mps 708 mmHg 95%
    07:00 +14°C° 0 mm 1 mps 709 mmHg 94%
    08:00 +17°C° 0 mm 2 mps 709 mmHg 82%
    09:00 +19°C° 0 mm 3 mps 709 mmHg 69%
    10:00 +21°C° 0 mm 4 mps 710 mmHg 57%
    11:00 +22°C° 0 mm 4 mps 709 mmHg 54%
    12:00 +22°C° 0 mm 4 mps 709 mmHg 50%
    13:00 +23°C° 0 mm 4 mps 709 mmHg 47%
    14:00 +23°C° 0 mm 4 mps 709 mmHg 48%
    15:00 +22°C° 0 mm 4 mps 708 mmHg 50%
    16:00 +22°C° 0 mm 3 mps 708 mmHg 51%
    17:00 +20°C° 0 mm 3 mps 708 mmHg 60%
    18:00 +18°C° 0 mm 2 mps 708 mmHg 69%
    19:00 +15°C° 0 mm 1 mps 709 mmHg 77%
    20:00 +14°C° 0 mm 1 mps 709 mmHg 80%
    21:00 +14°C° 0 mm 1 mps 709 mmHg 83%
    22:00 +13°C° 0 mm 1 mps 710 mmHg 86%
    23:00 +12°C° 0 mm 1 mps 709 mmHg 85%

    Day after tomorrow, 19 October, Friday

    Time Temperature Precipitation Wind Pressure Humidity
    00:00 +12°C° 0 mm 1 mps 709 mmHg 85%
    01:00 +12°C° 0 mm 1 mps 709 mmHg 85%
    02:00 +12°C° 0 mm 1 mps 709 mmHg 85%
    03:00 +11°C° 0 mm 1 mps 709 mmHg 85%
    04:00 +11°C° 0 mm 1 mps 709 mmHg 85%
    05:00 +13°C° 0 mm 1 mps 710 mmHg 80%
    06:00 +14°C° 0 mm 1 mps 710 mmHg 75%
    07:00 +15°C° 0 mm 1 mps 711 mmHg 70%
    08:00 +18°C° 0 mm 2 mps 711 mmHg 61%
    09:00 +20°C° 0 mm 3 mps 711 mmHg 52%
    10:00 +22°C° 0 mm 3 mps 711 mmHg 43%
    11:00 +24°C° 0 mm 3 mps 711 mmHg 41%
    12:00 +25°C° 0 mm 3 mps 710 mmHg 39%
    13:00 +26°C° 0 mm 4 mps 710 mmHg 37%
    14:00 +26°C° 0 mm 3 mps 709 mmHg 40%
    15:00 +26°C° 0 mm 3 mps 709 mmHg 42%
    16:00 +25°C° 0 mm 3 mps 708 mmHg 44%
    17:00 +23°C° 0 mm 2 mps 708 mmHg 54%
    18:00 +20°C° 0 mm 1 mps 708 mmHg 64%
    19:00 +18°C° 0 mm 1 mps 708 mmHg 74%
    20:00 +16°C° 0 mm 1 mps 708 mmHg 76%
    21:00 +16°C° 0 mm 1 mps 708 mmHg 77%
    22:00 +16°C° 0 mm 1 mps 709 mmHg 79%
    23:00 +15°C° 0 mm 1 mps 708 mmHg 82%

    20 October, Saturday

    Time Temperature Precipitation Wind Pressure Humidity
    00:00 +15°C° 0 mm 1 mps 708 mmHg 85%
    01:00 +14°C° 0 mm 1 mps 707 mmHg 87%
    02:00 +14°C° 0 mm 1 mps 707 mmHg 88%
    03:00 +14°C° 0 mm 1 mps 707 mmHg 89%
    04:00 +14°C° 0 mm 1 mps 707 mmHg 89%
    05:00 +15°C° 0 mm 1 mps 707 mmHg 85%
    06:00 +18°C° 0 mm 1 mps 707 mmHg 81%
    07:00 +19°C° 0 mm 1 mps 707 mmHg 77%
    08:00 +19°C° 0.2 mm 2 mps 708 mmHg 73%
    09:00 +21°C° 0.2 mm 3 mps 708 mmHg 70%
    10:00 +22°C° 0.2 mm 4 mps 708 mmHg 66%
    11:00 +23°C° 0.4 mm 4 mps 708 mmHg 62%
    12:00 +23°C° 0.4 mm 4 mps 708 mmHg 59%
    13:00 +25°C° 0.4 mm 4 mps 708 mmHg 56%
    14:00 +22°C° 1 mm 3 mps 708 mmHg 64%
    15:00 +21°C° 1 mm 3 mps 708 mmHg 73%
    16:00 +19°C° 1 mm 2 mps 708 mmHg 81%
    17:00 +18°C° 0.8 mm 2 mps 708 mmHg 85%
    18:00 +17°C° 0.8 mm 2 mps 709 mmHg 90%
    19:00 +15°C° 0.8 mm 1 mps 709 mmHg 94%
    20:00 +15°C° 1 mm 2 mps 709 mmHg 95%
    21:00 +13°C° 1 mm 3 mps 710 mmHg 96%
    22:00 +13°C° 1 mm 3 mps 710 mmHg 97%
    23:00 +12°C° 1.1 mm 3 mps 710 mmHg 97%

    21 October, Sunday

    Time Temperature Precipitation Wind Pressure Humidity
    00:00 +12°C° 1.1 mm 3 mps 710 mmHg 97%
    01:00 +12°C° 1.1 mm 2 mps 710 mmHg 97%
    02:00 +12°C° 1.4 mm 2 mps 709 mmHg 97%
    03:00 +12°C° 1.4 mm 2 mps 709 mmHg 97%
    04:00 +12°C° 1.4 mm 2 mps 709 mmHg 97%
    05:00 +12°C° 0.6 mm 2 mps 709 mmHg 96%
    06:00 +11°C° 0.6 mm 3 mps 710 mmHg 95%
    07:00 +11°C° 0.6 mm 3 mps 710 mmHg 94%
    08:00 +12°C° 0 mm 3 mps 710 mmHg 87%
    09:00 +13°C° 0 mm 3 mps 710 mmHg 81%
    10:00 +16°C° 0 mm 3 mps 710 mmHg 74%
    11:00 +16°C° 0.1 mm 3 mps 710 mmHg 75%
    12:00 +16°C° 0.1 mm 3 mps 710 mmHg 75%
    13:00 +16°C° 0.1 mm 2 mps 709 mmHg 75%
    14:00 +16°C° 0 mm 2 mps 709 mmHg 75%
    15:00 +16°C° 0 mm 3 mps 708 mmHg 74%
    16:00 +17°C° 0 mm 3 mps 708 mmHg 74%
    17:00 +15°C° 0 mm 2 mps 708 mmHg 79%
    18:00 +14°C° 0 mm 2 mps 708 mmHg 85%
    19:00 +12°C° 0 mm 1 mps 708 mmHg 91%
    20:00 +12°C° 0 mm 1 mps 708 mmHg 93%
    21:00 +11°C° 0 mm 1 mps 708 mmHg 95%
    22:00 +11°C° 0 mm 1 mps 708 mmHg 96%
    23:00 +10°C° 0 mm 1 mps 708 mmHg 96%

    22 October, Monday

    Time Temperature Precipitation Wind Pressure Humidity
    00:00 +10°C° 0 mm 1 mps 708 mmHg 96%
    01:00 +10°C° 0 mm 1 mps 707 mmHg 96%
    02:00 +10°C° 0 mm 1 mps 707 mmHg 96%
    03:00 +10°C° 0 mm 1 mps 707 mmHg 96%
    04:00 +10°C° 0 mm 1 mps 707 mmHg 95%
    05:00 +12°C° 0 mm 1 mps 707 mmHg 90%
    06:00 +13°C° 0 mm 1 mps 708 mmHg 85%
    07:00 +14°C° 0 mm 0 mps 708 mmHg 80%
    08:00 +19°C° 0 mm 1 mps 708 mmHg 72%
    09:00 +21°C° 0 mm 1 mps 708 mmHg 64%
    10:00 +23°C° 0 mm 1 mps 708 mmHg 57%
    11:00 +24°C° 0 mm 1 mps 708 mmHg 56%
    12:00 +24°C° 0 mm 1 mps 707 mmHg 55%
    13:00 +24°C° 0 mm 2 mps 706 mmHg 54%
    14:00 +24°C° 0.1 mm 2 mps 706 mmHg 56%
    15:00 +24°C° 0.1 mm 2 mps 706 mmHg 57%
    16:00 +24°C° 0.1 mm 3 mps 705 mmHg 59%
    17:00 +21°C° 0.1 mm 2 mps 705 mmHg 68%
    18:00 +19°C° 0.1 mm 2 mps 706 mmHg 77%
    19:00 +17°C° 0.1 mm 2 mps 706 mmHg 86%
    20:00 +16°C° 0 mm 1 mps 706 mmHg 87%
    21:00 +15°C° 0 mm 1 mps 706 mmHg 89%
    22:00 +14°C° 0 mm 1 mps 706 mmHg 90%
    23:00 +14°C° 0 mm 1 mps 705 mmHg 90%
    Show more